Time,TemperatureF,DewpointF,PressureIn,WindDirection,WindDirectionDegrees,WindSpeedMPH,WindSpeedGustMPH,Humidity,HourlyPrecipIn,Conditions,Clouds,dailyrainin,SoftwareType,DateUTC
2013-04-06 00:02:00,37.0,29.0,-100.00,ESE,115,5.0,6.0,73,0.00,,,-99.99,,2013-04-06 06:02:00,
2013-04-06 00:12:00,37.0,29.0,-100.00,SE,125,4.0,6.0,73,0.00,,,-99.99,,2013-04-06 06:12:00,
2013-04-06 00:22:00,37.0,29.0,-100.00,SE,130,3.0,4.0,73,0.00,,,-99.99,,2013-04-06 06:22:00,
2013-04-06 00:32:00,37.0,29.0,-100.00,SE,130,2.0,4.0,74,0.00,,,-99.99,,2013-04-06 06:32:00,
2013-04-06 00:42:00,37.0,30.0,-100.00,SE,125,4.0,6.0,74,0.00,,,-99.99,,2013-04-06 06:42:00,
2013-04-06 00:52:00,37.0,30.0,-100.00,SE,125,3.0,4.0,75,0.00,,,-99.99,,2013-04-06 06:52:00,
2013-04-06 01:02:00,37.0,30.0,-100.00,SE,125,4.0,5.0,75,0.00,,,-99.99,,2013-04-06 07:02:00,
2013-04-06 01:12:00,37.0,30.0,-100.00,SE,135,4.0,4.0,76,0.00,,,-99.99,,2013-04-06 07:12:00,
2013-04-06 01:22:00,37.0,30.0,-100.00,ESE,115,2.0,3.0,76,0.00,,,-99.99,,2013-04-06 07:22:00,
2013-04-06 01:32:00,37.0,30.0,-100.00,ESE,120,3.0,4.0,77,0.00,,,-99.99,,2013-04-06 07:32:00,
2013-04-06 01:42:00,37.0,30.0,-100.00,SE,135,4.0,6.0,77,0.00,,,-99.99,,2013-04-06 07:42:00,
2013-04-06 01:52:00,36.0,30.0,-100.00,SE,140,4.0,5.0,78,0.00,,,-99.99,,2013-04-06 07:52:00,
2013-04-06 02:02:00,35.0,29.0,-100.00,SW,220,1.0,6.0,78,0.00,,,-99.99,,2013-04-06 08:02:00,
2013-04-06 02:12:00,35.0,29.0,-100.00,SSE,150,2.0,4.0,78,0.00,,,-99.99,,2013-04-06 08:12:00,
2013-04-06 02:22:00,35.0,29.0,-100.00,SE,145,4.0,4.0,78,0.00,,,-99.99,,2013-04-06 08:22:00,
2013-04-06 02:32:00,35.0,29.0,-100.00,ESE,120,4.0,5.0,78,0.00,,,-99.99,,2013-04-06 08:32:00,
2013-04-06 02:42:00,35.0,29.0,-100.00,SE,135,4.0,6.0,78,0.00,,,-99.99,,2013-04-06 08:42:00,
2013-04-06 02:52:00,34.0,28.0,-100.00,SE,125,4.0,6.0,78,0.00,,,-99.99,,2013-04-06 08:52:00,
2013-04-06 03:02:00,34.0,28.0,-100.00,SE,125,4.0,6.0,78,0.00,,,-99.99,,2013-04-06 09:02:00,
2013-04-06 03:12:00,33.0,27.0,-100.00,SE,125,4.0,5.0,78,0.00,,,-99.99,,2013-04-06 09:12:00,
2013-04-06 03:22:00,33.0,27.0,-100.00,ESE,120,6.0,7.0,79,0.00,,,-99.99,,2013-04-06 09:22:00,
2013-04-06 03:32:00,33.0,27.0,-100.00,ESE,110,6.0,7.0,79,0.00,,,-99.99,,2013-04-06 09:32:00,
2013-04-06 03:42:00,32.0,27.0,-100.00,ESE,110,4.0,8.0,79,0.00,,,-99.99,,2013-04-06 09:42:00,
2013-04-06 03:52:00,32.0,26.0,-100.00,SE,125,6.0,7.0,79,0.00,,,-99.99,,2013-04-06 09:52:00,
2013-04-06 04:02:00,31.0,26.0,-100.00,ESE,120,6.0,7.0,79,0.00,,,-99.99,,2013-04-06 10:02:00,
2013-04-06 04:12:00,31.0,26.0,-100.00,SE,130,5.0,7.0,80,0.00,,,-99.99,,2013-04-06 10:12:00,
2013-04-06 04:22:00,31.0,26.0,-100.00,SE,130,3.0,6.0,80,0.00,,,-99.99,,2013-04-06 10:22:00,
2013-04-06 04:32:00,30.0,25.0,-100.00,SE,130,6.0,8.0,80,0.00,,,-99.99,,2013-04-06 10:32:00,
2013-04-06 04:42:00,30.0,25.0,-100.00,SE,130,4.0,7.0,80,0.00,,,-99.99,,2013-04-06 10:42:00,
2013-04-06 04:52:00,30.0,25.0,-100.00,ESE,120,6.0,7.0,80,0.00,,,-99.99,,2013-04-06 10:52:00,
2013-04-06 05:02:00,30.0,25.0,-100.00,ESE,115,4.0,6.0,80,0.00,,,-99.99,,2013-04-06 11:02:00,
2013-04-06 05:12:00,30.0,24.0,-100.00,SE,125,5.0,6.0,80,0.00,,,-99.99,,2013-04-06 11:12:00,
2013-04-06 05:22:00,29.0,24.0,-100.00,SE,125,4.0,6.0,80,0.00,,,-99.99,,2013-04-06 11:22:00,
2013-04-06 05:32:00,29.0,24.0,-100.00,SE,125,4.0,7.0,80,0.00,,,-99.99,,2013-04-06 11:32:00,
2013-04-06 05:42:00,29.0,24.0,-100.00,SE,125,6.0,6.0,80,0.00,,,-99.99,,2013-04-06 11:42:00,
2013-04-06 05:52:00,29.0,24.0,-100.00,SE,135,4.0,7.0,81,0.00,,,-99.99,,2013-04-06 11:52:00,
2013-04-06 06:02:00,29.0,24.0,-100.00,SE,125,6.0,7.0,81,0.00,,,-99.99,,2013-04-06 12:02:00,
2013-04-06 06:12:00,29.0,24.0,-100.00,SE,135,6.0,7.0,81,0.00,,,-99.99,,2013-04-06 12:12:00,
2013-04-06 06:22:00,29.0,24.0,-100.00,SE,135,4.0,7.0,80,0.00,,,-99.99,,2013-04-06 12:22:00,
2013-04-06 06:32:00,29.0,24.0,-100.00,SE,125,5.0,6.0,80,0.00,,,-99.99,,2013-04-06 12:32:00,
2013-04-06 06:42:00,29.0,24.0,-100.00,SE,130,4.0,6.0,80,0.00,,,-99.99,,2013-04-06 12:42:00,
2013-04-06 06:52:00,28.0,23.0,-100.00,SE,130,4.0,7.0,80,0.00,,,-99.99,,2013-04-06 12:52:00,
2013-04-06 07:02:00,29.0,24.0,-100.00,SE,125,4.0,6.0,80,0.00,,,-99.99,,2013-04-06 13:02:00,
2013-04-06 07:12:00,28.0,23.0,-100.00,SE,135,6.0,6.0,79,0.00,,,-99.99,,2013-04-06 13:12:00,
2013-04-06 07:23:00,29.0,23.0,-100.00,SE,130,4.0,7.0,79,0.00,,,-99.99,,2013-04-06 13:23:00,
2013-04-06 07:32:00,29.0,23.0,-100.00,ESE,120,4.0,6.0,79,0.00,,,-99.99,,2013-04-06 13:32:00,
2013-04-06 07:42:00,28.0,23.0,-100.00,SE,130,6.0,7.0,79,0.00,,,-99.99,,2013-04-06 13:42:00,
2013-04-06 07:52:00,30.0,24.0,-100.00,SE,130,3.0,6.0,79,0.00,,,-99.99,,2013-04-06 13:52:00,
2013-04-06 08:03:00,30.0,24.0,-100.00,SE,140,2.0,4.0,78,0.00,,,-99.99,,2013-04-06 14:03:00,
2013-04-06 08:12:00,31.0,25.0,-100.00,SE,140,1.0,3.0,78,0.00,,,-99.99,,2013-04-06 14:12:00,
2013-04-06 08:22:00,31.0,25.0,-100.00,SE,125,1.0,2.0,77,0.00,,,-99.99,,2013-04-06 14:22:00,
2013-04-06 08:32:00,31.0,25.0,-100.00,SE,130,3.0,4.0,76,0.00,,,-99.99,,2013-04-06 14:32:00,
2013-04-06 08:42:00,31.0,25.0,-100.00,SE,125,0.0,3.0,76,0.00,,,-99.99,,2013-04-06 14:42:00,
2013-04-06 08:52:00,33.0,25.0,-100.00,ESE,120,2.0,4.0,74,0.00,,,-99.99,,2013-04-06 14:52:00,
2013-04-06 09:02:00,33.0,25.0,-100.00,ESE,115,1.0,4.0,73,0.00,,,-99.99,,2013-04-06 15:02:00,
2013-04-06 09:12:00,34.0,26.0,-100.00,ESE,120,0.0,0.0,72,0.00,,,-99.99,,2013-04-06 15:12:00,
2013-04-06 09:22:00,35.0,26.0,-100.00,SSE,155,4.0,6.0,68,0.00,,,-99.99,,2013-04-06 15:22:00,
2013-04-06 09:32:00,36.0,26.0,-100.00,ENE,65,1.0,4.0,64,0.00,,,-99.99,,2013-04-06 15:32:00,
2013-04-06 09:42:00,37.0,26.0,-100.00,ENE,65,0.0,2.0,63,0.00,,,-99.99,,2013-04-06 15:42:00,
2013-04-06 09:52:00,40.0,26.0,-100.00,NE,45,3.0,4.0,57,0.00,,,-99.99,,2013-04-06 15:52:00,
2013-04-06 10:04:00,40.0,25.0,-100.00,NNE,30,2.0,4.0,54,0.00,,,-99.99,,2013-04-06 16:04:00,
2013-04-06 10:17:00,41.0,24.0,-100.00,North,10,2.0,4.0,50,0.00,,,-99.99,,2013-04-06 16:17:00,
2013-04-06 10:22:00,43.0,24.0,-100.00,NNE,25,1.0,2.0,45,0.00,,,-99.99,,2013-04-06 16:22:00,
2013-04-06 10:32:00,44.0,22.0,-100.00,NE,50,2.0,6.0,42,0.00,,,-99.99,,2013-04-06 16:32:00,
2013-04-06 10:42:00,44.0,21.0,-100.00,WSW,245,4.0,6.0,38,0.00,,,-99.99,,2013-04-06 16:42:00,
2013-04-06 10:53:00,44.0,19.0,-100.00,West,265,4.0,6.0,36,0.00,,,-99.99,,2013-04-06 16:53:00,
2013-04-06 11:02:00,44.0,19.0,-100.00,WSW,255,4.0,6.0,35,0.00,,,-99.99,,2013-04-06 17:02:00,
2013-04-06 11:12:00,45.0,19.0,-100.00,South,190,3.0,7.0,35,0.00,,,-99.99,,2013-04-06 17:12:00,
2013-04-06 11:22:00,46.0,20.0,-100.00,South,175,3.0,7.0,34,0.00,,,-99.99,,2013-04-06 17:22:00,
2013-04-06 11:32:00,46.0,20.0,-100.00,West,280,6.0,12.0,34,0.00,,,-99.99,,2013-04-06 17:32:00,
2013-04-06 11:42:00,46.0,20.0,-100.00,West,275,7.0,12.0,35,0.00,,,-99.99,,2013-04-06 17:42:00,
2013-04-06 11:52:00,46.0,20.0,-100.00,West,270,9.0,17.0,35,0.00,,,-99.99,,2013-04-06 17:52:00,
2013-04-06 12:02:00,46.0,19.0,-100.00,West,265,9.0,21.0,33,0.00,,,-99.99,,2013-04-06 18:02:00,
2013-04-06 12:12:00,46.0,18.0,-100.00,WNW,285,10.0,16.0,31,0.00,,,-99.99,,2013-04-06 18:12:00,
2013-04-06 12:22:00,45.0,17.0,-100.00,WNW,285,13.0,21.0,31,0.00,,,-99.99,,2013-04-06 18:22:00,
2013-04-06 12:32:00,46.0,18.0,-100.00,WNW,295,12.0,19.0,31,0.00,,,-99.99,,2013-04-06 18:32:00,
2013-04-06 12:42:00,47.0,18.0,-100.00,West,275,10.0,17.0,31,0.00,,,-99.99,,2013-04-06 18:42:00,
2013-04-06 12:52:00,48.0,19.0,-100.00,NW,320,8.0,17.0,31,0.00,,,-99.99,,2013-04-06 18:52:00,
2013-04-06 13:02:00,47.0,18.0,-100.00,WNW,290,10.0,17.0,31,0.00,,,-99.99,,2013-04-06 19:02:00,
2013-04-06 13:12:00,48.0,19.0,-100.00,WNW,285,9.0,14.0,30,0.00,,,-99.99,,2013-04-06 19:12:00,
2013-04-06 13:22:00,48.0,18.0,-100.00,WNW,290,8.0,20.0,29,0.00,,,-99.99,,2013-04-06 19:22:00,
2013-04-06 13:32:00,47.0,14.0,-100.00,WNW,295,11.0,21.0,26,0.00,,,-99.99,,2013-04-06 19:32:00,
2013-04-06 13:42:00,47.0,14.0,-100.00,WSW,255,8.0,18.0,26,0.00,,,-99.99,,2013-04-06 19:42:00,
2013-04-06 13:52:00,48.0,14.0,-100.00,WNW,295,14.0,24.0,25,0.00,,,-99.99,,2013-04-06 19:52:00,
2013-04-06 14:02:00,47.0,14.0,-100.00,West,270,11.0,21.0,25,0.00,,,-99.99,,2013-04-06 20:02:00,
2013-04-06 14:12:00,48.0,14.0,-100.00,West,280,13.0,21.0,25,0.00,,,-99.99,,2013-04-06 20:12:00,
2013-04-06 14:22:00,48.0,14.0,-100.00,West,275,11.0,23.0,25,0.00,,,-99.99,,2013-04-06 20:22:00,
2013-04-06 14:42:00,50.0,16.0,-100.00,WNW,300,11.0,21.0,25,0.00,,,-99.99,,2013-04-06 20:42:00,
2013-04-06 14:52:00,49.0,14.0,-100.00,West,270,10.0,17.0,25,0.00,,,-99.99,,2013-04-06 20:52:00,
2013-04-06 15:02:00,50.0,15.0,-100.00,West,275,7.0,17.0,24,0.00,,,-99.99,,2013-04-06 21:02:00,
2013-04-06 15:12:00,49.0,15.0,-100.00,WNW,295,9.0,20.0,24,0.00,,,-99.99,,2013-04-06 21:12:00,
2013-04-06 15:22:00,50.0,15.0,-100.00,WNW,300,12.0,17.0,24,0.00,,,-99.99,,2013-04-06 21:22:00,
2013-04-06 15:33:00,50.0,16.0,-100.00,WNW,295,7.0,20.0,24,0.00,,,-99.99,,2013-04-06 21:33:00,
2013-04-06 15:43:00,51.0,16.0,-100.00,West,275,4.0,16.0,24,0.00,,,-99.99,,2013-04-06 21:43:00,
2013-04-06 15:52:00,49.0,15.0,-100.00,West,275,7.0,21.0,24,0.00,,,-99.99,,2013-04-06 21:52:00,
2013-04-06 16:02:00,49.0,15.0,-100.00,West,265,10.0,25.0,24,0.00,,,-99.99,,2013-04-06 22:02:00,
2013-04-06 16:12:00,50.0,16.0,-100.00,WNW,300,10.0,21.0,25,0.00,,,-99.99,,2013-04-06 22:12:00,
2013-04-06 16:22:00,50.0,16.0,-100.00,West,260,10.0,20.0,25,0.00,,,-99.99,,2013-04-06 22:22:00,
2013-04-06 16:33:00,51.0,17.0,-100.00,WNW,290,14.0,22.0,25,0.00,,,-99.99,,2013-04-06 22:33:00,
2013-04-06 16:42:00,52.0,18.0,-100.00,WNW,290,9.0,21.0,25,0.00,,,-99.99,,2013-04-06 22:42:00,
2013-04-06 16:53:00,51.0,17.0,-100.00,West,280,7.0,21.0,25,0.00,,,-99.99,,2013-04-06 22:53:00,
2013-04-06 17:03:00,50.0,17.0,-100.00,WNW,300,9.0,22.0,25,0.00,,,-99.99,,2013-04-06 23:03:00,
2013-04-06 17:13:00,49.0,16.0,-100.00,WNW,285,12.0,16.0,26,0.00,,,-99.99,,2013-04-06 23:13:00,
2013-04-06 17:22:00,50.0,17.0,-100.00,WNW,300,9.0,17.0,26,0.00,,,-99.99,,2013-04-06 23:22:00,
2013-04-06 17:33:00,49.0,17.0,-100.00,WSW,245,4.0,13.0,27,0.00,,,-99.99,,2013-04-06 23:33:00,
2013-04-06 17:42:00,49.0,17.0,-100.00,WNW,290,7.0,12.0,27,0.00,,,-99.99,,2013-04-06 23:42:00,
2013-04-06 17:52:00,48.0,16.0,-100.00,West,270,10.0,16.0,27,0.00,,,-99.99,,2013-04-06 23:52:00,
2013-04-06 18:02:00,48.0,17.0,-100.00,WNW,285,11.0,16.0,27,0.00,,,-99.99,,2013-04-07 00:02:00,
2013-04-06 18:12:00,49.0,17.0,-100.00,West,280,5.0,14.0,28,0.00,,,-99.99,,2013-04-07 00:12:00,
2013-04-06 18:22:00,48.0,17.0,-100.00,SW,235,4.0,12.0,28,0.00,,,-99.99,,2013-04-07 00:22:00,
2013-04-06 18:32:00,48.0,17.0,-100.00,WNW,290,4.0,11.0,28,0.00,,,-99.99,,2013-04-07 00:32:00,
2013-04-06 18:42:00,48.0,17.0,-100.00,WNW,290,6.0,10.0,28,0.00,,,-99.99,,2013-04-07 00:42:00,
2013-04-06 18:52:00,47.0,17.0,-100.00,West,260,4.0,8.0,29,0.00,,,-99.99,,2013-04-07 00:52:00,
2013-04-06 19:02:00,47.0,17.0,-100.00,WNW,290,4.0,8.0,29,0.00,,,-99.99,,2013-04-07 01:02:00,
2013-04-06 19:12:00,47.0,17.0,-100.00,NW,310,6.0,10.0,29,0.00,,,-99.99,,2013-04-07 01:12:00,
2013-04-06 19:22:00,47.0,17.0,-100.00,WSW,250,5.0,11.0,29,0.00,,,-99.99,,2013-04-07 01:22:00,
2013-04-06 19:32:00,47.0,17.0,-100.00,WNW,285,7.0,14.0,29,0.00,,,-99.99,,2013-04-07 01:32:00,
2013-04-06 19:42:00,46.0,17.0,-100.00,NW,315,4.0,21.0,31,0.00,,,-99.99,,2013-04-07 01:42:00,
2013-04-06 19:52:00,46.0,18.0,-100.00,SW,230,1.0,9.0,32,0.00,,,-99.99,,2013-04-07 01:52:00,
2013-04-06 20:02:00,45.0,19.0,-100.00,WSW,245,7.0,14.0,33,0.00,,,-99.99,,2013-04-07 02:02:00,
2013-04-06 20:12:00,45.0,19.0,-100.00,WSW,250,4.0,9.0,34,0.00,,,-99.99,,2013-04-07 02:12:00,
2013-04-06 20:22:00,45.0,19.0,-100.00,West,265,6.0,10.0,35,0.00,,,-99.99,,2013-04-07 02:22:00,
2013-04-06 20:32:00,45.0,20.0,-100.00,WSW,255,4.0,11.0,35,0.00,,,-99.99,,2013-04-07 02:32:00,
2013-04-06 20:42:00,45.0,20.0,-100.00,SSE,165,4.0,14.0,36,0.00,,,-99.99,,2013-04-07 02:42:00,
2013-04-06 20:52:00,44.0,20.0,-100.00,SSE,160,7.0,14.0,37,0.00,,,-99.99,,2013-04-07 02:52:00,
2013-04-06 21:02:00,44.0,20.0,-100.00,SSE,155,4.0,14.0,37,0.00,,,-99.99,,2013-04-07 03:02:00,
2013-04-06 21:12:00,44.0,20.0,-100.00,SW,230,6.0,12.0,37,0.00,,,-99.99,,2013-04-07 03:12:00,
2013-04-06 21:22:00,44.0,20.0,-100.00,SE,140,9.0,16.0,37,0.00,,,-99.99,,2013-04-07 03:22:00,
2013-04-06 21:33:00,43.0,21.0,-100.00,West,270,11.0,22.0,40,0.00,,,-99.99,,2013-04-07 03:33:00,
2013-04-06 21:43:00,42.0,21.0,-100.00,West,270,6.0,12.0,42,0.00,,,-99.99,,2013-04-07 03:43:00,
2013-04-06 21:53:00,42.0,22.0,-100.00,WSW,240,2.0,9.0,44,0.00,,,-99.99,,2013-04-07 03:53:00,
2013-04-06 22:03:00,42.0,22.0,-100.00,SE,145,7.0,14.0,45,0.00,,,-99.99,,2013-04-07 04:03:00,
2013-04-06 22:13:00,41.0,23.0,-100.00,West,260,4.0,16.0,47,0.00,,,-99.99,,2013-04-07 04:13:00,
2013-04-06 22:23:00,41.0,23.0,-100.00,SE,140,2.0,6.0,49,0.00,,,-99.99,,2013-04-07 04:23:00,
2013-04-06 22:32:00,40.0,24.0,-100.00,SE,130,3.0,4.0,51,0.00,,,-99.99,,2013-04-07 04:32:00,
2013-04-06 22:43:00,39.0,24.0,-100.00,SSE,155,3.0,4.0,54,0.00,,,-99.99,,2013-04-07 04:43:00,
2013-04-06 22:52:00,39.0,25.0,-100.00,SE,145,2.0,3.0,55,0.00,,,-99.99,,2013-04-07 04:52:00,
2013-04-06 23:02:00,39.0,25.0,-100.00,SE,135,3.0,4.0,56,0.00,,,-99.99,,2013-04-07 05:02:00,
2013-04-06 23:12:00,39.0,26.0,-100.00,SE,130,2.0,4.0,57,0.00,,,-99.99,,2013-04-07 05:12:00,
2013-04-06 23:22:00,38.0,25.0,-100.00,ESE,115,4.0,4.0,59,0.00,,,-99.99,,2013-04-07 05:22:00,
2013-04-06 23:32:00,38.0,26.0,-100.00,ESE,115,3.0,5.0,59,0.00,,,-99.99,,2013-04-07 05:32:00,
2013-04-06 23:42:00,38.0,26.0,-100.00,ESE,120,5.0,6.0,59,0.00,,,-99.99,,2013-04-07 05:42:00,
2013-04-06 23:52:00,38.0,26.0,-100.00,WSW,240,0.0,4.0,60,0.00,,,-99.99,,2013-04-07 05:52:00,